| time (UTC) | temp C | wind direction | speed KPH | gust KPH | rain 1hr cm | rain 24hr cm | rain mn cm | humidity % | barometer mb |
| 20260504024526 | 16 | 317 | 8.0 | 16.1 | 0.00 | 0.00 | 0.00 | 95 | 1013.7 |
| 20260504023535 | 16 | 328 | 6.4 | 14.5 | 0.00 | 0.00 | 0.00 | 95 | 1013.8 |
| 20260504022523 | 16 | 324 | 6.4 | 14.5 | 0.00 | 0.00 | 0.00 | 94 | 1014.1 |
| 20260504021533 | 17 | 325 | 6.4 | 12.9 | 0.00 | 0.00 | 0.00 | 95 | 1014.2 |
| 20260504020522 | 16 | 315 | 6.4 | 16.1 | 0.00 | 0.00 | 0.00 | 96 | 1014.4 |
| 20260504015530 | 16 | 300 | 6.4 | 14.5 | 0.00 | 0.00 | 0.00 | 96 | 1014.6 |
| 20260504014519 | 16 | 326 | 6.4 | 19.3 | 0.00 | 0.00 | 0.00 | 96 | 1014.7 |
| 20260504013527 | 16 | 346 | 4.8 | 9.7 | 0.00 | 0.00 | 0.00 | 95 | 1014.7 |
| 20260504012516 | 16 | 324 | 8.0 | 17.7 | 0.00 | 0.00 | 0.00 | 96 | 1014.9 |
| 20260504011526 | 16 | 318 | 8.0 | 17.7 | 0.00 | 0.00 | 0.00 | 96 | 1015.1 |
| 20260504010536 | 16 | 321 | 8.0 | 16.1 | 0.00 | 0.00 | 0.00 | 96 | 1015.1 |
| 20260504005530 | 16 | 337 | 11.3 | 27.4 | 0.00 | 0.00 | 0.00 | 96 | 1015.0 |
| 20260504004533 | 16 | 328 | 8.0 | 17.7 | 0.00 | 0.00 | 0.00 | 96 | 1015.0 |
| 20260504003521 | 16 | 342 | 9.7 | 20.9 | 0.00 | 0.00 | 0.00 | 96 | 1015.2 |
| 20260504002531 | 16 | 339 | 11.3 | 22.5 | 0.00 | 0.00 | 0.00 | 96 | 1015.3 |
| 20260504001519 | 16 | 335 | 11.3 | 20.9 | 0.00 | 0.00 | 0.00 | 96 | 1015.2 |
| 20260504000529 | 16 | 348 | 12.9 | 25.7 | 0.00 | 0.00 | 0.00 | 96 | 1015.1 |
| 20260503235537 | 16 | 347 | 11.3 | 27.4 | 0.00 | 0.00 | 0.00 | 97 | 1015.1 |
| 20260503234525 | 16 | 347 | 14.5 | 29.0 | 0.00 | 0.00 | 0.00 | 98 | 1014.9 |
| 20260503233535 | 16 | 336 | 12.9 | 33.8 | 0.00 | 0.00 | 0.00 | 98 | 1015.2 |
| 20260503232531 | 16 | 329 | 11.3 | 20.9 | 0.00 | 0.00 | 0.00 | 98 | 1015.1 |
| 20260503231534 | 16 | 354 | 9.7 | 22.5 | 0.00 | 0.00 | 0.00 | 98 | 1015.5 |
| 20260503230522 | 16 | 325 | 8.0 | 20.9 | 0.00 | 0.00 | 0.00 | 98 | 1015.2 |
| 20260503225531 | 16 | 360 | 9.7 | 22.5 | 0.00 | 0.00 | 0.00 | 98 | 1015.1 |
| 20260503224521 | 16 | 348 | 8.0 | 16.1 | 0.00 | 0.00 | 0.00 | 98 | 1015.2 |
| 20260503223529 | 16 | 355 | 8.0 | 17.7 | 0.00 | 0.00 | 0.00 | 98 | 1015.1 |
| 20260503222517 | 16 | 3 | 8.0 | 20.9 | 0.00 | 0.00 | 0.00 | 98 | 1014.9 |
| 20260503221533 | 16 | 3 | 8.0 | 17.7 | 0.00 | 0.00 | 0.00 | 98 | 1014.9 |
| 20260503220534 | 16 | 4 | 6.4 | 14.5 | 0.00 | 0.00 | 0.00 | 98 | 1015.0 |
| 20260503215523 | 16 | 9 | 6.4 | 12.9 | 0.00 | 0.00 | 0.00 | 98 | 1015.1 |
| 20260503214533 | 16 | 0 | 4.8 | 11.3 | 0.00 | 0.00 | 0.00 | 98 | 1015.0 |
| 20260503213528 | 16 | 353 | 4.8 | 9.7 | 0.00 | 0.00 | 0.00 | 98 | 1014.9 |
| 20260503212537 | 16 | 9 | 4.8 | 16.1 | 0.00 | 0.00 | 0.00 | 98 | 1014.7 |
| 20260503211525 | 16 | 6 | 6.4 | 12.9 | 0.00 | 0.00 | 0.00 | 98 | 1014.6 |
| 20260503210527 | 16 | 9 | 4.8 | 12.9 | 0.00 | 0.00 | 0.00 | 98 | 1014.6 |
| 20260503205537 | 16 | 8 | 4.8 | 12.9 | 0.00 | 0.00 | 0.00 | 98 | 1014.6 |
| 20260503204525 | 16 | 3 | 4.8 | 9.7 | 0.00 | 0.00 | 0.00 | 98 | 1014.6 |
| 20260503203535 | 16 | 0 | 4.8 | 9.7 | 0.00 | 0.00 | 0.00 | 98 | 1014.4 |
| 20260503202524 | 16 | 1 | 6.4 | 14.5 | 0.00 | 0.00 | 0.00 | 98 | 1014.3 |
| 20260503201532 | 16 | 19 | 4.8 | 9.7 | 0.00 | 0.00 | 0.00 | 98 | 1014.3 |
| 20260503200521 | 16 | 2 | 4.8 | 9.7 | 0.00 | 0.00 | 0.00 | 98 | 1014.4 |
| 20260503195537 | 16 | 15 | 3.2 | 8.0 | 0.00 | 0.00 | 0.00 | 98 | 1014.4 |
| 20260503194533 | 16 | 1 | 3.2 | 8.0 | 0.00 | 0.00 | 0.00 | 98 | 1014.4 |
| 20260503193529 | 16 | 30 | 1.6 | 4.8 | 0.00 | 0.00 | 0.00 | 98 | 1014.4 |
| 20260503192518 | 16 | 4 | 3.2 | 8.0 | 0.00 | 0.00 | 0.00 | 98 | 1014.4 |
| 20260503191527 | 16 | 330 | 3.2 | 6.4 | 0.00 | 0.00 | 0.00 | 98 | 1014.6 |
| 20260503190537 | 16 | 354 | 1.6 | 6.4 | 0.00 | 0.00 | 0.00 | 98 | 1014.6 |
| 20260503185539 | 16 | 1 | 3.2 | 8.0 | 0.00 | 0.00 | 0.00 | 98 | 1014.8 |
| 20260503184534 | 16 | 9 | 3.2 | 6.4 | 0.00 | 0.00 | 0.00 | 98 | 1014.8 |
| 20260503183529 | 16 | 350 | 1.6 | 4.8 | 0.00 | 0.00 | 0.00 | 98 | 1014.8 |
| 20260503182537 | 16 | 333 | 1.6 | 9.7 | 0.00 | 0.00 | 0.00 | 98 | 1015.1 |
| 20260503181519 | 16 | 351 | 3.2 | 9.7 | 0.00 | 0.00 | 0.00 | 98 | 1015.0 |
| 20260503180529 | 16 | 318 | 3.2 | 8.0 | 0.00 | 0.00 | 0.00 | 98 | 1015.1 |
| 20260503175517 | 16 | 343 | 3.2 | 9.7 | 0.00 | 0.00 | 0.00 | 98 | 1015.2 |
| 20260503174526 | 16 | 342 | 4.8 | 11.3 | 0.00 | 0.00 | 0.00 | 98 | 1015.2 |
| 20260503173535 | 16 | 0 | 3.2 | 9.7 | 0.00 | 0.00 | 0.00 | 98 | 1015.2 |
| 20260503172523 | 16 | 17 | 4.8 | 9.7 | 0.00 | 0.00 | 0.00 | 98 | 1015.1 |
| 20260503171532 | 16 | 12 | 4.8 | 9.7 | 0.00 | 0.00 | 0.00 | 98 | 1015.1 |
| 20260503170521 | 16 | 360 | 6.4 | 11.3 | 0.00 | 0.00 | 0.00 | 98 | 1015.5 |
| 20260503150527 | 16 | 346 | 6.4 | 16.1 | 0.00 | 0.00 | 0.00 | 97 | 1016.7 |
| 20260503130535 | 17 | 41 | 1.6 | 6.4 | 0.00 | 0.00 | 0.00 | 96 | 1017.3 |
| 20260503110527 | 17 | 98 | 3.2 | 6.4 | 0.00 | 0.00 | 0.00 | 95 | 1017.4 |
| 20260503081532 | 18 | 335 | 8.0 | 17.7 | 0.00 | 0.00 | 0.00 | 90 | 1018.0 |
| 20260503080521 | 18 | 293 | 6.4 | 12.9 | 0.00 | 0.00 | 0.00 | 89 | 1017.8 |
| 20260503072516 | 18 | 358 | 1.6 | 3.2 | 0.00 | 0.00 | 0.00 | 90 | 1017.2 |
| 20260503071532 | 18 | 18 | 3.2 | 4.8 | 0.00 | 0.00 | 0.00 | 90 | 1017.3 |
| 20260503070536 | 18 | 324 | 6.4 | 11.3 | 0.00 | 0.00 | 0.00 | 89 | 1017.4 |
| 20260503054526 | 21 | 169 | 3.2 | 6.4 | 0.00 | 0.00 | 0.00 | 72 | 1017.5 |
| 20260503053536 | 21 | 204 | 3.2 | 4.8 | 0.00 | 0.00 | 0.00 | 67 | 1017.5 |
| 20260503052524 | 21 | 28 | 1.6 | 3.2 | 0.00 | 0.00 | 0.00 | 68 | 1017.5 |
| 20260503051532 | 21 | 208 | 1.6 | 3.2 | 0.00 | 0.00 | 0.00 | 67 | 1017.6 |
| 20260503050522 | 21 | 256 | 1.6 | 3.2 | 0.00 | 0.00 | 0.00 | 65 | 1017.8 |
| 20260503045530 | 22 | 213 | 3.2 | 6.4 | 0.00 | 0.00 | 0.00 | 65 | 1017.8 |
| 20260503044520 | 21 | 316 | 6.4 | 11.3 | 0.00 | 0.00 | 0.00 | 67 | 1018.0 |
| 20260503043528 | 21 | 360 | 3.2 | 6.4 | 0.00 | 0.00 | 0.00 | 71 | 1018.0 |
| 20260503042538 | 20 | 353 | 3.2 | 6.4 | 0.00 | 0.00 | 0.00 | 74 | 1017.9 |
| 20260503041525 | 21 | 342 | 6.4 | 12.9 | 0.00 | 0.00 | 0.00 | 70 | 1018.0 |
| 20260503040535 | 21 | 339 | 8.0 | 12.9 | 0.00 | 0.00 | 0.00 | 64 | 1018.1 |
| 20260503035523 | 22 | 327 | 9.7 | 16.1 | 0.00 | 0.00 | 0.00 | 62 | 1018.1 |
| 20260503034532 | 22 | 337 | 11.3 | 19.3 | 0.00 | 0.00 | 0.00 | 61 | 1018.2 |
| 20260503033521 | 22 | 319 | 11.3 | 22.5 | 0.00 | 0.00 | 0.00 | 59 | 1018.2 |
| 20260503032529 | 21 | 328 | 3.2 | 9.7 | 0.00 | 0.00 | 0.00 | 64 | 1018.5 |
| 20260503031518 | 21 | 341 | 8.0 | 14.5 | 0.00 | 0.00 | 0.00 | 63 | 1018.7 |
| 20260503030528 | 21 | 337 | 4.8 | 12.9 | 0.00 | 0.00 | 0.00 | 65 | 1018.8 |
| 20260503025534 | 20 | 323 | 4.8 | 9.7 | 0.00 | 0.00 | 0.00 | 69 | 1019.0 |